User: anonymous
Location: Caltech
(34.1382°N, 118.1253°W)
Time: 00:30:14
(UTC-07:00)
Language:

ADEOS II - Orbit

View from above orbital plane
View from above orbital plane
View from above satellite
View from above satellite

Ground track
Ground track

The orbit data is extracted from the following two-line orbital elements,

1 27597U 02056A   14105.03755571  .00000345  00000-0  15905-3 0  2760
2 27597 098.2759 116.3623 0002193 122.0589 297.5667 14.26770411590094
Epoch (UTC): 15 April 2014 00:54:04
Eccentricity: 0.0002193
inclination: 98.2759°
perigee height: 801 km
apogee height: 804 km
right ascension of ascending node: 116.3623°
argument of perigee: 122.0589°
revolutions per day: 14.26770411
mean anomaly at epoch: 297.5667°
orbit number at epoch: 59009

The dashed part of the orbit path shows where the satellite is in the earth's shadow,  

DLR